Weather History for KMIE - August, 2013

Change the Weather History Date:

Thursday, August 8, 2013

  Actual Average Record
Temperature  
Mean Temperature 75 °F 73 °F  
Max Temperature 82 °F 83 °F 95 °F (2007)
Min Temperature 68 °F 63 °F 47 °F (1989)
Degree Days  
Heating Degree Days 0 0  
Month to date heating degree days 1 0  
Since 1 June heating degree days 22 27  
Since 1 July heating degree days 8 3  
Cooling Degree Days 10 8  
Month to date cooling degree days 45 66  
Year to date cooling degree days 649 659  
Since 1 June cooling degree days 481 576  
Growing Degree Days 24 (Base 50)    
Moisture  
Dew Point 70 °F    
Average Humidity 87    
Maximum Humidity 100    
Minimum Humidity 74    
Precipitation  
Precipitation 0.19 in 0.10 in 0.93 in (2011)
Month to date precipitation 1.16 0.88  
Year to date precipitation 23.77 25.49  
Sea Level Pressure  
Sea Level Pressure 29.94 in    
Wind  
Wind Speed 4 mph (NNE)    
Max Wind Speed 12 mph    
Max Gust Speed 22 mph    
Visibility 4 miles    
Events Fog , Rain , Thunderstorm    
T = Trace of Precipitation, MM = Missing Value Source: NWS Daily Summary

Daily Weather History Graph

Daily Weather History Graph

Search for Another Location

Airport or City:

Trip Planner

Search our weather history database for the weather conditions in past years. The results will help you decide how hot, cold, wet, or windy it might be!

Date:

Astronomy

Aug. 08, 2013 Rise Set
Actual Time 6:46 AM EDT 8:47 PM EDT
Civil Twilight 6:16 AM EDT 9:17 PM EDT
Nautical Twilight 5:40 AM EDT 9:53 PM EDT
Astronomical Twilight 5:00 AM EDT 10:32 PM EDT
Moon 8:32 AM EDT (8/8) 9:25 PM EDT (8/8)
Length of Visible Light 15h 00m
Length of Day
14h 01m
Waxing Crescent, 3% of the Moon is Illuminated
Aug 8
Waxing Crescent
Aug 14
First Quarter
Aug 20
Full
Aug 28
Last Quarter
Sep 5
New

Hourly Weather History & Observations

Time (EDT) Temp. Heat Index Dew Point Humidity Pressure Visibility Wind Dir Wind Speed Gust Speed Precip Events Conditions
12:28 AM 75.2 °F - 71.6 °F 89% 29.94 in 7.0 mi SW 3.5 mph - N/A   Overcast
12:48 AM 75.2 °F - 71.6 °F 89% 29.94 in 7.0 mi SW 4.6 mph - 0.00 in   Overcast
12:53 AM 75.9 °F - 72.0 °F 87% 29.91 in 7.0 mi SW 3.5 mph - 0.00 in   Overcast
1:53 AM 73.9 °F - 71.1 °F 91% 29.90 in 7.0 mi West 4.6 mph - 0.00 in   Mostly Cloudy
2:53 AM 72.0 °F - 70.0 °F 93% 29.90 in 4.0 mi Calm Calm - N/A   Partly Cloudy
3:42 AM 73.4 °F - 71.6 °F 94% 29.93 in 4.0 mi WNW 6.9 mph - 0.01 in   Mostly Cloudy
3:53 AM 73.0 °F - 71.1 °F 93% 29.89 in 4.0 mi NW 6.9 mph - 0.01 in   Mostly Cloudy
4:12 AM 71.6 °F - 69.8 °F 94% 29.93 in 3.0 mi WNW 4.6 mph - N/A   Overcast
4:19 AM 71.6 °F - 69.8 °F 94% 29.94 in 3.0 mi Calm Calm - N/A   Mostly Cloudy
4:51 AM 71.6 °F - 69.8 °F 94% 29.94 in 5.0 mi Calm Calm - N/A   Overcast
4:53 AM 71.1 °F - 70.0 °F 96% 29.91 in 5.0 mi Calm Calm - N/A   Overcast
5:53 AM 70.0 °F - 69.1 °F 97% 29.90 in 4.0 mi Calm Calm - N/A   Mostly Cloudy
6:29 AM 68.0 °F - 66.2 °F 94% 29.93 in 2.5 mi Calm Calm - N/A   Clear
6:46 AM 68.0 °F - 66.2 °F 94% 29.93 in 1.5 mi Calm Calm - N/A   Clear
6:53 AM 68.0 °F - 66.9 °F 96% 29.90 in 1.0 mi Calm Calm - N/A   Clear
7:07 AM 68.0 °F - 66.2 °F 94% 29.93 in 0.5 mi Calm Calm - N/A Fog Fog
7:25 AM 69.8 °F - 66.2 °F 88% 29.94 in 2.0 mi Calm Calm - N/A   Mostly Cloudy
7:35 AM 69.8 °F - 68.0 °F 94% 29.94 in 1.5 mi Calm Calm - N/A   Overcast
7:53 AM 70.0 °F - 68.0 °F 93% 29.91 in 2.0 mi Calm Calm - N/A   Overcast
8:53 AM 70.0 °F - 68.0 °F 93% 29.93 in 2.0 mi Calm Calm - N/A   Overcast
9:07 AM 69.8 °F - 68.0 °F 94% 29.96 in 1.8 mi ESE 3.5 mph - N/A   Overcast
9:28 AM 71.6 °F - 69.8 °F 94% 29.96 in 2.5 mi Calm Calm - N/A   Overcast
9:51 AM 71.6 °F - 69.8 °F 94% 29.97 in 3.0 mi Calm Calm - N/A   Overcast
9:53 AM 71.1 °F - 69.1 °F 93% 29.94 in 3.0 mi Calm Calm - N/A   Overcast
10:53 AM 73.0 °F - 70.0 °F 90% 29.96 in 4.0 mi Calm Calm - N/A   Overcast
11:02 AM 73.4 °F - 69.8 °F 88% 29.98 in 4.0 mi East 3.5 mph - N/A   Overcast
11:45 AM 77.0 °F - 71.6 °F 83% 29.97 in 6.0 mi ENE 5.8 mph - N/A   Haze
11:53 AM 78.1 °F - 70.0 °F 76% 29.95 in 6.0 mi Calm Calm - N/A   Haze
12:35 PM 78.8 °F - 71.6 °F 78% 29.97 in 8.0 mi NE 3.5 mph - N/A   Overcast
12:53 PM 79.0 °F - 71.1 °F 77% 29.93 in 8.0 mi NNE 4.6 mph - N/A   Overcast
1:45 PM 80.6 °F 84.6 °F 71.6 °F 74% 29.95 in 10.0 mi NNE 5.8 mph - N/A   Mostly Cloudy
1:53 PM 79.0 °F - 70.0 °F 74% 29.92 in 10.0 mi NNE 8.1 mph - N/A   Mostly Cloudy
2:12 PM 77.0 °F - 71.6 °F 83% 29.96 in 2.0 mi North 8.1 mph - 0.07 in Rain Heavy Rain
2:19 PM 75.2 °F - 71.6 °F 89% 29.95 in 1.0 mi North 10.4 mph - 0.12 in Rain Heavy Rain
2:27 PM 75.2 °F - 71.6 °F 89% 29.95 in 2.0 mi NNE 9.2 mph - 0.15 in Rain , Thunderstorm Thunderstorms and Rain
2:38 PM 75.2 °F - 71.6 °F 89% 29.95 in 4.0 mi North 8.1 mph - 0.15 in Rain , Thunderstorm Light Thunderstorms and Rain
2:53 PM 75.0 °F - 72.0 °F 90% 29.92 in 5.0 mi North 6.9 mph - 0.15 in Rain , Thunderstorm Light Rain
3:03 PM 75.2 °F - 71.6 °F 89% 29.96 in 2.5 mi North 8.1 mph - 0.02 in Rain Rain
3:18 PM 75.2 °F - 73.4 °F 94% 29.95 in 4.0 mi NNE 10.4 mph - 0.04 in Rain Light Rain
3:53 PM 75.0 °F - 71.1 °F 87% 29.92 in 7.0 mi NNE 9.2 mph - 0.04 in   Mostly Cloudy
4:16 PM 75.2 °F - 71.6 °F 89% 29.95 in 7.0 mi NE 6.9 mph - N/A   Mostly Cloudy
4:53 PM 75.9 °F - 70.0 °F 82% 29.92 in 6.0 mi NE 6.9 mph - N/A   Haze
5:53 PM 73.9 °F - 69.1 °F 85% 29.92 in 4.0 mi NNE 9.2 mph - N/A   Haze
6:53 PM 73.9 °F - 69.1 °F 85% 29.91 in 3.0 mi ENE 6.9 mph - N/A   Haze
7:21 PM 73.4 °F - 69.8 °F 88% 29.93 in 3.0 mi NE 10.4 mph - N/A   Scattered Clouds
7:31 PM 73.4 °F - 69.8 °F 88% 29.94 in 3.0 mi NE 9.2 mph - N/A   Mostly Cloudy
7:53 PM 73.0 °F - 69.1 °F 87% 29.91 in 4.0 mi NNE 5.8 mph - N/A   Overcast
8:50 PM 71.6 °F - 68.0 °F 88% 29.95 in 2.5 mi NE 5.8 mph - N/A   Overcast
8:53 PM 72.0 °F - 68.0 °F 87% 29.92 in 3.0 mi NE 5.8 mph - N/A   Overcast
9:53 PM 72.0 °F - 68.0 °F 87% 29.94 in 4.0 mi NNE 8.1 mph - N/A   Overcast
10:14 PM 71.6 °F - 68.0 °F 88% 29.97 in 4.0 mi NNE 5.8 mph - N/A   Overcast
10:38 PM 71.6 °F - 68.0 °F 88% 29.97 in 4.0 mi NNE 9.2 mph - N/A   Overcast
10:51 PM 71.6 °F - 68.0 °F 88% 29.97 in 3.0 mi NE 8.1 mph - N/A   Overcast
10:53 PM 71.1 °F - 68.0 °F 90% 29.94 in 3.0 mi NE 8.1 mph - N/A   Overcast
11:53 PM 70.0 °F - 68.0 °F 93% 29.93 in 3.0 mi ENE 6.9 mph - N/A   Overcast